"Pseudo-MPEC" for C0GQ2T2

Created 2019 Apr 22 3:07:11 UT using Find_Orb

Click here for an explanation of pseudo-MPECs

 
 Astrometry: 
     C0GQ2T2  C2019 04 14.41312 16 22 18.00 -04 02 22.9    ~4JA7 21.2 GVNEOCPG96
     C0GQ2T2  C2019 04 14.41787 16 22 19.33 -04 02 44.4    ~4EAX 20.8 GVNEOCPG96
     C0GQ2T2  C2019 04 14.42260 16 22 20.70 -04 03 05.1    ~4EAX 20.9 GVNEOCPG96
     C0GQ2T2  C2019 04 14.42736 16 22 22.03 -04 03 26.1    ~4EAX 21.3 GVNEOCPG96
     C0GQ2T2 KC2019 04 14X?F$frLcp:7TAs)03Astrometry.v@A6BrX=*FO#l-$LNvy7lm(F691
     C0GQ2T2  C2019 04 14.44062116 22 25.61 -04 04 26.5    ~4EBI 20.6 GVNEOCPH01
     C0GQ2T2 KC2019 04 144!)Di7u/3uEUmXMx$V!J%QlUP]!weG2g+00v+?/'?tvFLTNYt-0f691
     C0GQ2T2  C2019 04 14.44767016 22 27.62 -04 04 57.8    ~4EBI 20.5 GVNEOCPH01
     C0GQ2T2 KC2019 04 14c:I7i@#0K4@Gs9WTWPO.vUR]uMk+m.EqL7`lnpq\j?V)P0`9HVoe691
     C0GQ2T2  C2019 04 14.45505116 22 29.72 -04 05 30.9    ~4EBI 20.9 GVNEOCPH01
     C0GQ2T2  C2019 04 14.46234116 22 31.80 -04 06 03.5    ~4EBI 20.6 GVNEOCPH01
     C0GQ2T2  C2019 04 14.47254 16 22 34.86 -04 06 47.6    ~4EBm 20.8 GVNEOCPV06
     C0GQ2T2  C2019 04 14.47400 16 22 35.28 -04 06 54.3    ~4EBm 20.7 GVNEOCPV06
     C0GQ2T2  C2019 04 14.47546 16 22 35.70 -04 07 00.7    ~4EBm 21.1 GVNEOCPV06
     C0GQ2T2  C2019 04 14.47693 16 22 36.10 -04 07 07.4    ~4EBm 20.5 GVNEOCPV06
     C0GQ2T2 IC2019 04 15.,`[wFO_Ef\`2+0^g#C]-.wg!FCredacted;JeclickQWKg.KpHqL01
     C0GQ2T2 IC2019 04 15p4-V8@^@;#WHeT5gT27?dnEQWpG%A=9OMmAm,!gGYxJDR_1-L#L6L01
     C0GQ2T2 KC2019 04 15KqA(Bh-c_8fn43T5!nxKm*eX77[here'for-5Hi1jwu)w3oE!(y7L01
     C0GQ2T2 KC2019 04 15\U_4Z,ye06FNq-=?wOcNexplanationJl%7;%9CX*%3CmHP2G;B^L01
     C0GQ2T2  C2019 04 15.37768 16 27 15.40 -05 15 38.4    ~4F9X 20.3 GVNEOCPI52
     C0GQ2T2  C2019 04 15.37892 16 27 15.77 -05 15 45.1    ~4F9X 20.4 GVNEOCPI52
     C0GQ2T2  C2019 04 15.38017 16 27 16.11 -05 15 50.9    ~4F9X 19.8 GVNEOCPI52
     C0GQ2T2  C2019 04 15.38896 16 27 18.74 -05 16 31.6    ~4F9m 20.2 GVNEOCPG96
     C0GQ2T2  C2019 04 15.38971 16 27 18.87 -05 16 35.3    ~4F9m       VNEOCPG96
     C0GQ2T2  C2019 04 15.39046 16 27 19.17 -05 16 38.3    ~4F9m 20.7 GVNEOCPG96
     C0GQ2T2  C2019 04 16.44604 16 32 53.88 -06 40 35.6    ~4GB3       VNEOCPG96
     C0GQ2T2  C2019 04 16.44679 16 32 54.16 -06 40 39.6    ~4GB3       VNEOCPG96
     C0GQ2T2  C2019 04 16.44754 16 32 54.38 -06 40 42.0    ~4GB3       VNEOCPG96
     C0GQ2T2  C2019 04 16.44830 16 32 54.66 -06 40 46.6    ~4GB3 21.2 GVNEOCPG96
     C0GQ2T2  C2019 04 19.38451916 49 34.71 -10 54 09.0    ~4JA7 20.1 GVNEOCPH01
     C0GQ2T2  C2019 04 19.39222316 49 37.28 -10 54 51.6    ~4JA7 20.8 GVNEOCPH01
     C0GQ2T2  C2019 04 19.39851216 49 39.37 -10 55 25.8    ~4JA7 20.0 GVNEOCPH01
     C0GQ2T2  C2019 04 19.40502316 49 41.59 -10 56 01.2    ~4JA7 20.5 GVNEOCPH01

Station data:
(691) Steward Observatory, Kitt Peak - Spacewatch  (N31.962174 W111.600327)
   US/Arizona.  Observer J. V. Scotti. 0.9-m f/3 reflector + CCD.
(G96) Mt. Lemmon Survey  (N32.442754 W110.788720)  US/Arizona.  Observers T.
   A. Pruyne, B. M. Africano, E. J. Christensen, G. A. Farneth, D. C. Fuls,
   A. R. Gibbs, A. D. Grauer, H. Groeller, J. A. Johnson, R. A. Kowalski, S.
   M. Larson, G. J. Leonard, R. L. Seaman, F. C. Shelly. 1.5-m reflector +
   10K CCD.
(H01) Magdalena Ridge Observatory, Socorro  (N33.984833 W107.189333)  US/New
   Mexico.  Observers W. H. Ryan, E. V. Ryan. Measurer W. H. Ryan. 2.4-m
   f/8.9 reflector + CCD.
(I52) Steward Observatory, Mt. Lemmon Station  (N32.442547 W110.788920)
   US/Arizona.  Observers T. A. Pruyne, B. M. Africano, E. J. Christensen, G.
   A. Farneth, D. C. Fuls, A. R. Gibbs, A. D. Grauer, H. Groeller, J. A.
   Johnson, R. A. Kowalski, S. M. Larson, G. J. Leonard, R. L. Seaman, F. C.
   Shelly. 1.0-m reflector + CCD.
(L01) Višnjan Observatory, Tičan  (N45.290900 E13.749300)  Croatia.
   Observers K. Korlević, E. Pettarin. Measurer E. Pettarin. 1.0-m f/2.9
   reflector + CCD.
(V06) Catalina Sky Survey-Kuiper  (N32.416847 W110.732550)  US/Arizona.
   Observers T. A. Pruyne, B. M. Africano, E. J. Christensen, G. A. Farneth,
   D. C. Fuls, A. R. Gibbs, A. D. Grauer, H. Groeller, J. A. Johnson, R. A.
   Kowalski, S. M. Larson, G. J. Leonard, R. L. Seaman, F. C. Shelly. 1.55-m
   reflector + CCD.

Orbital elements:  C0GQ2T2
   Perihelion 2019 May 11.769662 +/- 0.0168 TT = 18:28:18 (JD 2458615.269662)
Epoch 2019 Apr 19.0 TT = JDT 2458592.5   Earth MOID: 0.0828   AutoNEOCP
M 352.01915441 +/- 0.10             (J2000 ecliptic)
n   0.35050347 +/- 0.00454          Peri.  195.52863 +/- 0.012
a   1.99223773 +/- 0.0172           Node    41.35316 +/- 0.034
e   0.4556099 +/- 0.00441           Incl.   11.33362 +/- 0.06
P   2.81                   H 23.2   G  0.15   U  9.1  
q 1.08455444 +/- 0.000588    Q 2.89992102 +/- 0.0343
From 33 observations 2019 Apr. 14-19; mean residual 0".38
Residuals in arcseconds: 
190414 G96  .00   .14-    190414 V06  .12-  .17+    190415 G96  .47+  .24-    
190414 G96  .25-  .46-    190414 V06  .06-  .01-    190415 G96  .87-  .44-    
190414 G96  .18+  .07-    190414 V06  .00   .10+    190415 G96  .32+  .06+    
190414 G96  .12-  .15+    190414 V06  .28-  .04-    190416 G96  1.0-  .11-    
190414 691  .91+  .12+    190415 L01  1.2+  .32-    190416 G96  .25-  .45-    
190414 H01  .08-  .03+    190415 L01  .13-  .08+    190416 G96  .36-  .81+    
190414 691  .02-  .45+    190415 L01  .35+  .11+    190416 G96  .37+  .08-    
190414 H01  .01+  .16+    190415 L01  .05+  .82+    190419 H01  .35+  .18+    
190414 691  .90-  .03-    190415 I52  .07+  .31+    190419 H01  .04+  .25-    
190414 H01  .00   .02-    190415 I52  .15+  .60-    190419 H01  .32-  .02-    
190414 H01  .06+  .11-    190415 I52  .25-  .57-    190419 H01  .15+  .20+    

Ephemerides (geocentric):
Date (UTC) HH   RA              Dec         delta   r     elong  mag " sig PA
---- -- -- --  -------------   -----------  ------ ------ -----  --- ---- ---
2019 04 22 03  17 06 37.442   -15 13 26.72  .13937 1.1063 133.9 20.8 .573  50
2019 04 22 04  17 06 53.713   -15 17 32.85  .13929 1.1062 133.9 20.8 .587  50
2019 04 22 05  17 07 10.006   -15 21 39.22  .13920 1.1061 133.9 20.8 .601  49
2019 04 22 06  17 07 26.320   -15 25 45.82  .13911 1.1060 133.9 20.8 .614  49
2019 04 22 07  17 07 42.656   -15 29 52.65  .13903 1.1059 133.8 20.8 .629  48
2019 04 22 08  17 07 59.013   -15 33 59.72  .13894 1.1058 133.8 20.8 .643  47
2019 04 22 09  17 08 15.392   -15 38 07.01  .13886 1.1057 133.8 20.8 .657  47
2019 04 22 10  17 08 31.793   -15 42 14.54  .13878 1.1057 133.8 20.8 .672  46
2019 04 22 11  17 08 48.215   -15 46 22.29  .13869 1.1056 133.8 20.8 .686  46
2019 04 22 12  17 09 04.658   -15 50 30.26  .13861 1.1055 133.7 20.8 .701  45
2019 04 22 13  17 09 21.124   -15 54 38.46  .13853 1.1054 133.7 20.8 .716  45
2019 04 22 14  17 09 37.610   -15 58 46.89  .13844 1.1053 133.7 20.8 .732  44
2019 04 22 15  17 09 54.119   -16 02 55.53  .13836 1.1052 133.7 20.8 .747  44
2019 04 22 16  17 10 10.649   -16 07 04.39  .13828 1.1051 133.6 20.8 .762  44
2019 04 22 17  17 10 27.200   -16 11 13.47  .13820 1.1050 133.6 20.8 .778  43
2019 04 22 18  17 10 43.774   -16 15 22.76  .13812 1.1050 133.6 20.8 .794  43
2019 04 22 19  17 11 00.369   -16 19 32.27  .13804 1.1049 133.6 20.8 .810  42
2019 04 22 20  17 11 16.985   -16 23 41.99  .13796 1.1048 133.5 20.8 .826  42
2019 04 22 21  17 11 33.623   -16 27 51.92  .13788 1.1047 133.5 20.8 .842  41
2019 04 22 22  17 11 50.283   -16 32 02.06  .13780 1.1046 133.5 20.8 .859  41
2019 04 22 23  17 12 06.964   -16 36 12.40  .13772 1.1045 133.5 20.8 .876  41
2019 04 23 00  17 12 23.667   -16 40 22.95  .13764 1.1044 133.4 20.8 .892  40
2019 04 23 01  17 12 40.392   -16 44 33.70  .13756 1.1043 133.4 20.8 .909  40
2019 04 23 02  17 12 57.139   -16 48 44.66  .13749 1.1043 133.4 20.8 .926  40
2019 04 23 03  17 13 13.907   -16 52 55.81  .13741 1.1042 133.4 20.8 .944  39
2019 04 23 04  17 13 30.697   -16 57 07.17  .13733 1.1041 133.3 20.8 .961  39
2019 04 23 05  17 13 47.508   -17 01 18.72  .13726 1.1040 133.3 20.8 .978  39
2019 04 23 06  17 14 04.341   -17 05 30.46  .13718 1.1039 133.3 20.8 1.00  38
2019 04 23 07  17 14 21.196   -17 09 42.39  .13711 1.1038 133.3 20.7 1.01  38
2019 04 23 08  17 14 38.073   -17 13 54.52  .13703 1.1037 133.2 20.7 1.03  38
2019 04 23 09  17 14 54.971   -17 18 06.84  .13696 1.1037 133.2 20.7 1.05  37
2019 04 23 10  17 15 11.891   -17 22 19.34  .13688 1.1036 133.2 20.7 1.07  37
2019 04 23 11  17 15 28.833   -17 26 32.03  .13681 1.1035 133.2 20.7 1.09  37
2019 04 23 12  17 15 45.796   -17 30 44.90  .13674 1.1034 133.1 20.7 1.11  37
2019 04 23 13  17 16 02.781   -17 34 57.95  .13666 1.1033 133.1 20.7 1.12  36
2019 04 23 14  17 16 19.788   -17 39 11.18  .13659 1.1032 133.1 20.7 1.14  36
2019 04 23 15  17 16 36.816   -17 43 24.59  .13652 1.1031 133.1 20.7 1.16  36
2019 04 23 16  17 16 53.867   -17 47 38.18  .13645 1.1031 133.0 20.7 1.18  35
2019 04 23 17  17 17 10.939   -17 51 51.94  .13638 1.1030 133.0 20.7 1.20  35
2019 04 23 18  17 17 28.032   -17 56 05.87  .13630 1.1029 133.0 20.7 1.22  35
2019 04 23 19  17 17 45.148   -18 00 19.97  .13623 1.1028 132.9 20.7 1.24  35
2019 04 23 20  17 18 02.285   -18 04 34.24  .13616 1.1027 132.9 20.7 1.26  34
2019 04 23 21  17 18 19.444   -18 08 48.68  .13610 1.1026 132.9 20.7 1.28  34
2019 04 23 22  17 18 36.624   -18 13 03.28  .13603 1.1026 132.9 20.7 1.30  34
2019 04 23 23  17 18 53.827   -18 17 18.04  .13596 1.1025 132.8 20.7 1.32  34
2019 04 24 00  17 19 11.051   -18 21 32.97  .13589 1.1024 132.8 20.7 1.34  33
2019 04 24 01  17 19 28.296   -18 25 48.05  .13582 1.1023 132.8 20.7 1.36  33
2019 04 24 02  17 19 45.564   -18 30 03.29  .13575 1.1022 132.8 20.7 1.38  33